GFSMW_con_mucape_006.txt.gz
CAPE
493 415 338 281 231 391 544 475 282 183 92 41 32 19 15 45 24 0 1 0 0 0 0 0 0 0 0 0 0 0 0 0 0 0 0 0 0 0 0 0 0 0 0
163 272 344 460 502 415 146 45 38 27 8 2 21 25 2 2 0 0 0 0 0 0 0 0 0 0 0 0 0 0 0 0 0 0 0 0 0 0 0 0 0 0 0
81 43 76 96 47 25 6 4 0 0 0 0 0 0 0 0 0 0 0 0 0 0 0 0 0 0 0 0 0 0 0 0 0 0 0 0 0 0 0 0 0 0 0
0 0 0 0 0 0 0 0 0 0 0 0 0 0 0 0 0 0 0 0 0 0 0 0 0 0 0 0 0 0 0 0 0 0 0 0 1 0 0 0 0 0 0
0 1 0 0 0 0 0 0 0 0 0 0 0 0 0 0 0 0 0 0 0 0 0 0 0 0 0 0 0 0 0 0 0 0 0 0 0 0 0 0 0 0 0
0 1 0 0 0 0 0 0 0 0 0 0 0 0 0 0 0 0 0 0 0 0 0 0 0 0 0 0 0 0 0 0 0 0 0 0 0 0 0 0 0 0 0
0 0 5 0 0 0 0 0 0 0 0 0 0 0 0 0 0 0 0 0 0 0 0 0 0 0 0 0 8 1 0 0 0 0 0 0 0 0 0 0 0 0 0
0 7 0 0 0 0 0 0 0 0 0 0 0 0 0 0 0 0 0 0 0 0 0 0 0 3 0 7 6 5 0 0 0 0 0 0 0 0 0 0 0 0 0
0 0 0 0 0 0 0 0 0 0 0 0 0 0 0 0 0 0 0 0 0 0 0 2 5 2 14 7 10 0 0 0 0 0 0 0 0 0 0 0 0 0 0
0 0 0 0 0 0 0 0 0 0 0 0 0 0 0 0 0 0 0 0 0 0 1 11 19 19 2 1 2 0 0 0 0 0 0 0 0 0 0 0 0 0 0
0 0 0 3 4 2 7 10 0 0 0 0 0 0 0 0 0 0 0 0 0 0 10 12 11 1 0 0 0 0 0 0 0 0 0 0 0 0 0 0 0 0 0
2 1 4 18 16 12 2 0 0 0 0 0 0 0 0 0 0 0 0 0 0 0 11 0 1 0 0 0 0 0 0 0 0 0 0 0 0 0 0 0 0 0 0
0 1 8 17 13 5 0 0 0 0 0 0 0 0 0 0 0 0 0 0 0 0 3 9 2 0 0 0 0 0 0 0 0 0 0 0 0 0 0 0 0 0 0
0 0 4 4 10 4 1 0 0 0 0 0 0 0 0 0 0 0 0 0 0 3 3 3 0 0 0 0 0 0 0 0 0 0 0 0 0 0 0 0 0 0 0
0 4 8 13 25 3 0 0 0 0 0 0 0 0 0 0 0 0 0 0 0 2 7 0 0 0 0 0 0 0 0 0 0 0 0 0 0 0 0 0 0 0 0
3 17 21 32 18 0 0 0 0 0 0 0 0 0 0 0 0 0 0 0 6 0 0 0 0 0 0 0 0 0 0 0 0 0 0 0 0 0 0 0 0 0 0
18 29 39 16 0 0 0 0 0 0 0 0 0 0 0 0 0 0 0 0 1 0 1 0 0 3 0 0 0 0 0 0 0 0 0 0 0 0 0 0 0 0 0
14 10 0 0 0 0 0 0 0 0 0 0 0 0 0 0 0 0 0 0 1 5 6 1 0 0 0 0 0 0 0 0 0 0 0 0 0 0 0 0 0 0 0
0 0 0 0 0 0 0 0 0 0 0 0 0 0 0 0 0 0 0 0 0 9 8 3 2 0 0 0 0 0 0 0 0 0 0 0 0 0 0 0 0 0 0
1 2 0 0 0 0 0 0 0 0 0 0 0 0 0 0 0 0 0 0 0 0 0 1 0 0 0 0 0 0 0 0 0 0 0 0 0 0 0 0 0 0 0
0 0 0 0 0 0 0 0 0 0 0 0 0 0 0 0 0 0 0 0 0 0 0 0 0 0 0 0 0 0 0 0 0 0 0 0 0 0 0 0 0 0 0
0 0 0 0 0 0 0 0 0 0 0 0 0 0 0 0 0 0 0 0 0 0 0 0 1 0 0 0 0 0 0 0 0 0 0 0 0 0 0 0 0 0 0
0 0 0 0 0 0 0 0 0 0 0 0 0 0 0 0 0 0 0 0 0 0 0 2 0 0 0 0 0 0 0 0 0 0 0 0 0 0 0 0 0 0 0
0 0 0 0 0 0 0 0 0 0 0 0 0 0 0 0 0 1 0 0 0 0 0 0 0 0 0 0 0 0 0 0 0 0 0 0 0 0 0 0 0 0 0
0 0 0 0 0 0 0 0 0 0 0 0 0 0 0 0 0 0 0 0 0 0 0 0 0 0 0 0 0 0 0 0 0 0 0 0 0 0 0 0 0 0 0
0 0 0 0 0 0 0 0 0 0 0 0 0 0 0 0 0 0 0 0 0 0 0 0 0 0 0 0 0 0 0 0 0 0 0 0 0 0 0 0 0 0 0

GFSMW_con_mucape_012.txt.gz
CAPE
231 447 622 807 948 1028 1066 1157 829 704 581 196 17 0 0 0 0 0 0 0 0 0 0 0 0 0 0 0 0 0 0 0 0 0 0 0 0 7 22 21 18 11 7
409 490 811 997 1113 1129 1077 911 767 624 381 66 0 4 8 0 0 0 0 0 0 0 0 0 0 0 0 0 0 0 0 0 11 0 0 0 0 0 14 23 12 18 26
511 720 779 760 667 630 575 270 62 4 0 0 0 0 0 0 0 0 0 0 0 0 0 0 0 0 0 0 1 0 1 5 5 15 11 0 0 0 0 10 8 13 4
394 146 23 63 4 0 0 0 0 0 0 0 0 0 0 0 0 0 0 0 0 0 0 0 0 0 0 0 3 1 0 0 0 4 4 2 1 0 0 4 14 0 0
1 0 0 0 0 0 0 0 0 0 0 0 0 0 0 0 0 0 0 0 0 0 0 0 0 0 0 1 1 0 0 2 6 3 0 1 1 1 0 0 6 0 1
0 0 0 0 0 0 0 0 0 0 0 0 0 0 0 0 0 0 0 0 0 0 0 0 0 6 7 10 2 0 2 1 0 0 0 0 0 0 0 0 0 0 0
0 0 0 0 0 0 0 0 0 0 0 0 0 0 0 0 0 0 0 0 0 0 0 0 0 5 17 5 9 6 11 5 0 0 5 9 17 0 4 0 0 0 1
0 0 0 0 0 0 0 0 0 0 0 0 0 0 2 2 0 0 0 0 0 0 0 0 0 11 26 7 2 35 32 18 10 12 19 26 27 28 38 46 45 0 0
0 0 0 0 0 0 0 0 0 0 0 0 0 0 0 0 0 0 0 0 0 0 0 6 20 29 21 21 49 44 29 24 14 22 31 35 35 40 35 36 45 55 0
0 0 0 0 0 0 0 0 0 2 0 3 1 0 0 0 0 0 0 0 0 0 0 11 38 54 32 35 38 44 29 16 23 30 33 42 33 34 41 41 42 43 11
0 0 0 0 0 3 1 0 0 6 9 0 0 0 0 0 0 0 0 0 0 0 0 3 30 38 47 30 59 71 20 22 32 38 44 46 40 42 45 46 43 41 36
0 0 0 0 3 5 1 3 9 8 10 0 0 0 0 0 0 0 0 0 0 0 0 2 21 43 54 61 58 47 18 25 33 32 37 33 29 46 43 40 43 35 36
0 0 0 0 5 7 3 5 3 9 0 0 0 0 0 0 0 0 0 0 0 2 6 12 30 40 48 58 32 22 23 31 31 16 17 20 26 27 22 17 14 0 0
0 0 0 3 5 4 7 10 5 0 0 0 0 0 0 0 0 0 0 0 0 3 15 19 25 45 32 22 6 11 19 15 14 13 10 14 6 0 0 0 0 0 0
0 0 1 3 0 4 8 10 0 0 0 0 0 0 0 0 0 0 0 0 0 9 26 5 4 0 0 0 0 0 2 15 2 0 0 0 0 0 0 0 0 0 0
0 0 0 0 0 4 14 1 0 0 0 0 0 0 0 0 0 0 0 0 2 11 30 44 42 44 0 2 2 0 0 0 0 0 0 0 0 0 0 0 0 0 0
0 0 0 0 3 13 3 5 0 0 0 0 0 0 0 0 0 0 0 2 4 19 26 50 47 42 24 0 0 0 0 0 0 0 0 0 0 0 0 0 0 0 0
0 0 0 0 6 8 12 2 0 0 0 0 0 0 0 0 0 0 0 6 14 17 26 37 41 27 0 0 0 0 0 0 0 0 0 0 0 0 0 0 0 0 0
0 0 0 0 14 26 10 2 0 0 0 0 0 0 0 0 0 0 2 11 13 14 29 16 5 0 0 0 0 0 0 0 0 0 0 0 0 0 0 0 0 0 0
0 0 0 4 14 14 8 0 0 0 0 0 0 0 0 0 0 0 2 8 12 5 1 0 0 0 0 0 0 0 0 0 0 0 0 0 0 0 0 0 0 0 0
0 0 0 9 21 19 3 0 0 0 0 0 0 0 0 0 0 0 1 5 10 1 0 0 0 0 0 0 0 0 0 0 0 0 0 0 0 0 0 0 0 0 0
0 2 10 24 28 8 0 0 0 0 0 0 0 0 0 0 0 0 4 10 6 0 0 0 0 0 0 0 0 0 0 0 0 0 0 0 0 0 0 0 0 0 0
14 22 37 34 23 0 0 0 0 0 0 0 0 0 0 0 0 2 10 17 5 0 0 0 0 0 0 0 0 0 0 0 0 0 0 0 0 0 0 0 0 0 0
29 36 19 1 1 0 0 0 0 0 0 0 0 0 0 0 0 5 11 13 1 0 0 0 0 0 0 0 0 0 0 0 0 0 0 0 0 0 0 0 0 0 0
24 12 3 0 0 0 0 0 0 0 0 0 0 0 0 0 0 0 0 0 0 0 0 0 0 0 0 0 0 0 0 0 0 0 0 0 0 0 0 0 0 0 0
8 1 0 0 0 0 0 0 0 0 0 0 0 0 0 0 0 0 0 0 0 0 0 0 0 0 0 0 0 0 0 0 0 0 0 0 0 0 0 0 0 0 0

GFSMW_con_mucape_015.txt.gz
CAPE
773 817 937 1132 1126 1320 1539 1046 1094 1223 794 810 583 73 9 1 0 0 0 0 0 0 0 0 0 0 0 0 0 2 0 0 0 0 1 1 2 12 0 5 23 24 19
742 953 1173 1359 1413 1423 1408 1122 1060 936 913 481 65 21 49 30 0 0 0 0 0 0 0 0 0 0 0 0 0 1 0 0 0 0 0 0 0 0 0 0 1 31 3
914 1126 1354 1455 1367 1307 1269 1184 943 734 288 28 27 48 14 0 0 0 0 0 0 0 0 0 0 0 0 0 0 1 7 0 0 1 1 0 0 0 0 3 5 48 11
914 1201 1260 1189 1035 894 674 359 96 7 1 0 0 1 19 21 0 0 0 0 0 0 0 0 0 0 0 0 0 0 3 6 7 10 7 13 17 0 0 3 3 9 6
950 637 417 246 107 45 8 0 0 0 0 0 0 0 0 0 0 0 0 0 0 0 0 0 0 0 0 1 6 14 14 20 26 21 14 10 1 0 6 0 10 10 14
311 65 1 0 0 0 0 0 0 0 0 0 0 0 0 0 0 0 0 1 0 0 0 0 0 0 0 7 16 21 27 32 23 11 3 20 19 16 23 23 20 47 12
4 0 0 0 0 0 0 0 0 0 0 0 0 0 0 0 0 0 0 0 0 0 0 0 0 0 0 7 14 27 30 58 26 0 15 28 35 37 35 33 29 39 11
0 0 0 0 0 0 0 0 0 0 0 0 0 0 0 7 0 0 0 0 0 0 0 0 0 3 10 17 33 56 76 57 43 37 42 52 49 51 39 44 48 59 29
0 0 0 0 0 0 0 0 0 0 0 0 0 0 3 1 0 0 0 0 0 0 0 0 0 10 19 25 56 65 68 80 52 54 57 53 44 46 35 36 35 78 64
0 0 0 0 0 0 0 0 0 0 0 0 0 0 12 0 0 0 0 0 0 0 0 0 0 5 43 50 54 56 60 47 55 23 44 67 68 62 46 36 56 72 72
0 0 0 0 0 0 0 0 0 2 1 0 0 8 3 0 0 0 0 0 0 0 0 0 0 3 24 40 59 46 63 78 45 34 64 64 55 55 51 95 74 80 75
0 1 0 0 0 0 0 0 3 6 4 2 3 1 0 0 0 0 0 0 0 0 0 0 6 16 21 23 46 58 59 53 51 58 47 42 37 43 68 56 35 41 35
23 1 0 0 0 0 0 2 6 6 5 10 6 0 0 0 0 0 0 0 0 0 1 10 15 23 20 27 50 59 55 39 41 40 38 47 37 31 19 14 12 7 0
25 0 0 0 0 0 5 10 6 4 6 15 0 0 0 0 0 0 0 0 0 0 4 12 11 17 21 17 25 24 22 30 33 43 21 4 5 2 0 0 0 0 0
0 0 0 0 0 1 10 20 1 1 9 5 0 0 0 0 0 0 0 0 0 1 6 16 18 34 22 4 1 6 23 31 26 14 13 2 0 0 0 0 0 0 0
0 0 0 0 0 0 4 0 0 2 16 0 0 0 0 0 0 0 0 0 2 5 9 20 31 32 20 0 0 0 0 3 16 8 0 0 0 0 0 0 0 0 0
0 0 0 0 0 0 0 0 13 27 11 1 0 0 0 0 0 0 0 0 4 10 16 25 30 39 28 0 0 0 0 0 3 1 0 0 0 0 0 0 0 0 0
0 0 0 0 0 0 0 16 37 20 10 16 0 0 0 0 0 0 0 0 7 12 15 20 30 39 11 0 0 0 0 1 2 0 0 0 0 0 0 0 0 0 0
0 0 0 0 0 0 6 16 26 32 21 1 0 0 0 0 0 0 0 0 4 11 18 23 15 20 5 0 0 0 0 0 0 0 0 0 0 0 0 0 0 0 0
0 0 0 0 0 0 7 28 34 31 22 0 0 0 0 0 0 0 0 0 5 11 14 12 3 1 0 0 0 0 0 0 0 0 0 0 0 0 0 0 0 0 0
0 0 1 4 8 1 22 30 17 12 0 0 0 0 0 0 0 0 0 0 5 13 21 2 0 0 0 0 0 0 0 0 0 0 0 0 0 0 0 0 0 0 0
0 1 16 18 17 21 11 12 9 0 0 0 0 0 0 0 0 0 0 3 10 26 23 16 12 0 0 0 0 0 0 0 0 0 0 0 0 0 0 0 0 0 0
0 0 16 29 45 25 18 0 0 0 0 0 0 0 0 0 0 0 1 8 15 24 18 19 37 0 51 0 0 0 0 0 0 0 0 0 0 0 0 0 0 0 0
0 0 0 13 20 15 0 0 0 0 0 0 0 0 0 0 0 0 2 12 16 13 13 24 0 0 37 31 0 0 0 0 0 0 0 0 0 0 0 0 0 0 0
0 1 13 13 14 0 0 0 0 0 0 0 0 0 0 0 0 0 0 0 6 10 11 36 0 92 0 0 0 14 0 0 0 0 0 0 0 0 0 0 0 0 0
0 0 1 5 0 0 0 0 0 0 0 0 0 0 0 0 0 0 0 0 0 0 0 0 0 0 0 0 0 0 0 0 0 0 0 0 0 0 0 0 0 0 0

GFSMW_con_mucape_021.txt.gz
CAPE
241 145 107 325 618 754 601 459 508 549 498 211 81 175 64 15 0 0 0 0 0 0 0 0 0 0 0 0 0 0 0 0 0 0 0 0 0 0 0 0 0 0 0
361 400 461 709 983 898 929 600 626 668 573 199 222 158 20 0 0 0 0 0 0 0 0 0 0 0 0 0 0 0 0 0 0 0 0 0 0 0 0 0 0 0 0
552 627 738 827 1254 1124 1039 730 749 677 362 310 342 6 0 0 0 0 0 0 0 0 0 0 0 0 0 0 0 0 0 0 0 0 0 0 0 0 0 0 0 0 0
672 757 950 1003 1280 1242 965 744 673 364 422 530 0 0 0 0 0 0 0 0 0 0 0 0 0 0 0 0 0 0 0 0 0 0 0 0 0 0 0 0 0 0 0
711 855 1055 1184 1165 1053 792 561 430 447 502 0 0 0 0 0 0 0 0 0 0 0 0 0 0 0 0 0 0 0 0 0 0 0 0 0 0 0 0 0 0 0 0
691 891 1087 1176 1007 795 785 745 388 94 36 0 0 0 0 0 0 0 0 0 0 1 0 0 0 0 0 0 0 0 0 0 0 2 1 0 0 0 0 0 0 0 0
785 989 1091 955 853 755 619 530 228 120 54 2 0 0 0 0 0 0 0 0 1 0 0 0 0 0 0 0 0 0 0 0 0 0 0 0 0 0 0 0 0 0 0
801 861 841 659 614 497 301 215 158 38 0 0 0 0 0 0 0 0 0 2 4 0 0 0 0 0 0 0 0 0 0 0 0 0 0 0 0 0 0 0 0 0 0
673 655 597 485 297 81 11 0 0 0 0 0 0 0 0 0 2 4 3 10 2 0 0 0 0 0 0 0 0 1 1 0 0 1 3 2 8 6 1 0 0 0 0
477 376 240 110 28 0 0 0 0 0 0 0 0 3 5 9 12 5 17 12 2 0 0 0 0 0 0 0 0 13 9 7 8 9 14 10 6 0 0 0 0 0 0
296 177 29 0 0 0 0 0 0 0 0 0 0 0 2 4 3 9 28 21 0 0 0 0 0 0 0 0 0 0 0 0 0 7 7 0 0 0 0 0 0 0 0
256 165 41 0 0 0 0 0 0 0 0 0 0 1 0 0 20 30 25 0 0 0 0 0 0 0 0 0 0 0 0 3 0 0 0 0 2 2 1 0 0 1 0
198 95 20 0 0 0 0 0 0 0 0 0 0 11 0 11 41 31 11 0 0 0 0 0 0 0 0 0 0 0 0 0 0 0 0 2 1 0 0 0 0 0 0
137 33 1 0 0 3 4 23 54 74 6 0 0 8 9 14 16 13 0 0 0 0 0 0 0 0 0 0 0 0 0 0 0 0 0 0 0 0 0 0 0 0 0
72 61 33 39 48 56 66 68 86 90 48 0 0 2 7 11 7 1 0 0 0 0 0 0 0 0 0 1 0 1 1 0 0 0 0 0 0 0 0 0 0 0 0
0 0 35 54 62 70 64 71 71 64 40 0 0 2 4 8 10 0 0 0 0 0 0 0 0 0 1 7 1 7 4 0 0 0 0 0 0 0 0 0 0 0 0
0 0 38 69 78 71 55 48 55 39 0 1 4 0 0 1 0 0 0 0 0 0 0 0 0 0 1 1 0 0 0 0 0 0 0 0 0 0 0 0 0 0 0
0 0 0 13 32 44 55 53 41 6 1 2 2 2 4 0 0 0 0 0 0 0 0 0 0 0 0 0 0 3 0 0 0 0 0 0 0 0 0 0 0 0 0
0 0 0 0 0 15 29 26 23 17 1 0 0 0 0 0 0 0 0 0 0 0 0 0 0 0 0 0 2 1 0 0 0 0 0 0 0 0 0 0 0 0 0
0 0 0 0 0 3 10 14 15 3 6 10 17 6 1 0 0 0 0 0 0 0 0 0 0 0 1 4 8 0 0 0 0 0 0 0 0 0 0 0 0 0 0
0 0 0 3 17 18 20 25 19 14 20 47 25 14 0 0 0 0 0 0 0 0 0 0 0 0 0 0 0 0 0 0 0 0 0 0 0 0 0 0 0 0 0
0 0 0 3 21 23 25 37 35 36 55 36 37 0 0 0 0 0 0 0 0 0 0 0 0 3 0 1 1 0 0 0 0 0 0 0 0 0 0 0 0 0 0
1 1 1 3 10 13 14 5 13 9 0 0 0 0 0 0 0 0 0 0 0 0 0 0 0 1 1 0 0 0 0 0 0 0 0 0 0 0 0 0 0 0 0
8 0 0 0 0 10 2 0 0 0 0 0 0 0 0 0 0 0 0 0 0 0 0 0 0 1 1 0 1 0 0 0 0 0 0 0 0 0 0 0 0 0 0
0 0 0 0 0 3 0 0 0 0 0 0 0 0 0 0 0 0 0 0 0 0 0 0 0 0 0 0 0 2 1 0 0 0 0 0 0 0 0 0 0 0 0
0 0 0 0 0 0 0 0 0 0 0 0 0 0 0 0 0 0 0 0 0 0 0 0 0 0 0 0 0 0 0 0 0 0 0 0 0 0 0 0 0 0 0

GFSMW_con_mucape_024.txt.gz
CAPE
240 511 797 570 281 272 475 345 391 316 265 245 217 103 54 98 48 0 0 0 0 0 0 0 0 0 0 0 0 0 0 0 0 0 0 0 0 0 0 0 0 0 0
182 207 507 572 452 404 477 378 357 362 343 369 250 85 88 107 34 0 0 0 0 0 0 0 0 0 0 0 0 0 0 0 0 0 0 0 0 0 0 0 0 0 0
118 105 171 512 553 523 629 500 448 471 466 458 285 123 92 77 0 0 0 0 0 0 0 0 0 0 0 0 0 0 0 0 0 0 0 0 0 0 0 0 0 0 0
259 341 285 561 572 664 758 624 642 597 554 522 210 150 123 0 0 0 0 0 0 0 0 0 0 0 0 0 0 0 0 0 0 0 0 0 0 0 0 0 0 0 0
418 440 759 788 823 785 736 710 724 670 664 213 284 131 0 0 0 0 0 0 0 0 0 0 0 0 0 0 0 0 0 0 0 0 0 0 0 0 0 0 0 0 0
473 591 818 1099 1108 996 885 791 850 790 395 518 437 96 7 4 4 10 0 0 0 1 1 0 0 0 0 0 0 0 0 0 0 0 0 0 0 0 0 0 0 0 0
532 795 933 1113 1214 1059 690 520 503 425 502 579 19 9 18 26 30 3 0 0 0 0 0 0 0 0 0 0 0 0 0 0 0 0 0 0 0 0 0 0 0 0 0
575 868 1069 1134 1139 881 633 480 386 289 202 32 4 16 49 34 1 6 15 1 0 1 0 1 0 0 0 0 0 0 0 0 0 0 0 0 0 0 7 0 0 0 0
706 953 1116 1215 937 756 658 492 315 492 183 126 62 62 54 8 16 29 0 0 0 1 0 0 0 0 0 0 0 0 0 0 0 0 0 0 0 0 2 0 1 0 0
851 1043 1166 976 798 632 521 398 325 124 168 214 51 1 0 0 2 0 0 1 8 5 12 1 0 0 0 0 0 0 1 0 0 0 0 2 6 2 1 1 0 2 0
824 858 785 634 526 390 232 104 68 62 39 5 0 1 6 6 5 6 6 13 18 23 2 1 0 0 0 0 0 0 0 0 0 0 0 0 0 0 0 1 1 0 0
589 558 482 451 410 234 28 0 0 0 0 36 68 20 0 13 8 14 12 7 17 21 0 0 0 0 0 0 0 0 0 0 0 0 0 0 0 0 0 0 0 0 0
510 435 427 417 282 74 11 4 2 0 47 57 70 66 25 0 0 2 3 3 4 2 0 0 0 0 0 0 0 0 0 0 0 0 0 0 0 0 0 0 0 0 0
392 363 328 256 148 81 68 44 21 36 45 46 58 49 22 1 0 0 0 0 0 0 0 0 0 0 0 0 0 0 2 7 4 5 0 0 0 0 0 0 0 0 0
271 331 273 157 69 42 48 35 33 37 53 59 56 30 2 1 0 1 0 0 0 0 0 0 0 0 0 0 0 0 5 10 6 8 0 0 0 0 0 0 0 0 0
0 0 36 51 45 44 43 40 40 52 63 55 27 9 3 0 3 6 1 0 0 0 0 0 0 0 0 0 0 4 4 5 4 0 0 0 0 0 0 0 0 0 0
0 0 0 0 8 35 69 50 62 61 54 27 11 6 6 1 3 0 0 1 0 0 0 0 0 0 0 0 0 3 1 6 3 0 0 0 0 0 0 0 0 0 0
0 0 0 0 3 29 46 64 69 50 29 12 1 1 2 3 4 1 6 0 0 0 0 0 0 0 0 0 0 0 4 4 1 0 0 0 0 0 0 0 0 0 0
0 0 0 0 0 18 33 37 38 25 28 20 9 9 6 7 0 0 0 0 0 0 0 0 0 0 0 0 0 4 5 3 0 0 0 0 0 0 0 0 0 0 0
0 0 0 0 0 0 5 16 19 26 24 26 17 9 4 0 0 0 0 0 0 0 0 0 0 0 0 0 0 0 3 0 0 0 0 0 0 0 0 0 0 0 0
0 0 0 0 0 0 4 23 24 21 21 15 10 13 1 0 0 0 0 0 0 0 0 0 0 0 0 0 0 3 6 1 0 0 0 0 0 0 0 0 0 0 0
0 0 0 0 0 0 5 20 26 17 5 1 3 0 0 0 0 0 0 0 0 0 0 0 0 0 0 0 3 6 0 0 0 0 0 0 0 0 0 0 0 0 0
0 0 0 0 0 2 8 0 15 13 3 0 0 0 0 0 0 0 0 0 0 0 0 0 0 0 0 0 0 4 0 0 0 0 0 0 0 0 0 0 0 0 0
0 0 0 0 0 0 4 3 0 1 0 0 0 0 0 0 0 0 0 0 0 0 0 0 0 0 0 0 0 0 0 0 0 0 0 0 0 0 0 0 0 0 0
0 0 0 0 0 0 0 0 0 0 0 0 0 0 0 0 0 0 0 0 0 0 0 0 0 0 0 0 0 0 0 0 0 0 0 0 0 0 0 0 0 0 0
0 0 0 0 0 0 0 0 0 0 0 0 0 0 0 0 0 0 0 0 0 0 0 0 0 0 0 0 0 0 0 0 0 0 0 0 0 0 0 0 0 0 0

GFSMW_con_mucape_027.txt.gz
CAPE
430 363 425 459 579 503 554 795 561 387 255 274 249 214 143 52 33 29 12 0 0 0 0 0 0 0 0 0 0 0 0 0 0 0 0 0 0 0 0 0 0 0 0
502 581 617 577 542 489 620 692 278 246 294 292 230 185 130 42 60 59 31 0 0 0 0 0 0 0 0 0 0 0 0 0 0 0 0 0 0 0 0 0 0 0 0
451 570 596 616 423 387 598 579 330 314 237 233 236 236 170 64 58 79 49 0 0 0 0 0 0 0 0 0 0 0 0 0 0 0 0 0 0 0 0 0 0 0 0
274 406 525 693 551 322 357 546 363 353 324 304 289 291 203 51 76 118 22 0 0 0 0 0 0 0 0 0 0 0 0 0 0 0 0 0 0 0 0 0 0 0 0
213 311 300 548 619 436 347 354 416 397 359 288 395 364 304 106 107 58 0 0 0 0 0 0 0 0 4 0 0 0 0 0 0 0 0 0 0 0 0 0 0 0 0
165 170 227 319 460 531 481 371 567 498 455 438 438 304 128 112 42 0 0 3 2 1 0 0 0 1 4 0 0 0 0 0 0 0 0 0 0 0 0 0 0 0 0
256 256 548 535 486 564 664 628 647 561 433 574 679 149 254 88 21 34 41 43 35 0 4 6 3 0 0 0 0 0 0 0 0 0 0 0 0 0 0 0 0 0 0
343 390 637 735 709 753 825 803 706 625 670 748 345 413 472 274 49 47 61 39 11 22 5 2 0 4 0 0 0 0 0 0 0 0 0 0 0 0 0 0 0 0 0
112 441 681 937 1027 1087 1071 892 798 741 671 375 463 603 57 69 51 61 68 42 21 13 11 0 0 0 0 0 0 0 0 0 0 0 0 0 0 0 0 0 0 1 0
286 475 684 988 1090 1172 1129 685 577 505 340 282 231 106 14 36 73 54 44 39 41 10 1 5 4 3 3 0 0 0 0 0 0 0 0 0 0 0 0 0 0 1 1
401 539 720 983 1132 1159 908 694 634 460 284 160 35 49 74 92 16 19 23 18 10 5 2 1 0 0 5 0 0 0 0 0 0 0 0 0 0 0 0 0 0 0 0
492 649 861 1034 1108 1176 904 746 563 363 195 175 115 82 50 29 49 26 12 16 15 4 3 0 0 0 0 0 0 0 0 0 0 0 0 0 0 0 0 0 0 0 0
485 721 878 1028 1152 1016 739 570 437 298 113 97 82 26 30 44 34 7 3 0 0 0 0 0 0 0 0 0 0 0 0 0 0 0 0 0 1 0 0 0 0 0 0
200 621 847 951 1001 743 479 332 234 116 38 26 31 33 51 41 26 6 4 3 3 3 0 0 0 0 0 0 0 0 0 0 0 0 0 0 1 0 0 0 0 0 0
49 181 473 584 577 466 339 210 107 56 30 34 36 47 45 44 26 14 3 4 2 2 0 0 0 0 0 0 0 0 0 0 3 4 4 0 0 0 0 0 0 0 0
1 91 218 319 320 252 207 132 68 44 37 46 47 62 44 36 19 20 15 6 9 8 0 0 0 0 0 0 0 0 0 0 4 7 4 0 0 0 0 0 0 0 0
0 0 0 0 2 3 5 11 21 44 51 42 50 51 29 23 19 15 14 12 7 3 0 0 0 0 0 0 0 0 0 0 7 4 1 0 0 0 0 0 0 0 0
0 0 0 0 0 0 0 0 0 22 42 53 62 53 46 18 15 19 10 1 0 0 0 0 0 0 0 0 0 0 0 1 2 0 0 0 0 0 0 0 0 0 0
0 0 0 0 0 0 0 0 2 17 42 46 55 64 24 18 11 19 18 4 0 0 0 0 0 0 0 0 0 0 0 0 0 0 0 0 0 0 0 0 0 0 0
0 0 0 0 0 0 0 0 0 3 22 44 63 39 22 25 12 64 33 0 0 0 0 0 0 0 0 0 0 0 0 0 0 1 0 0 0 0 0 0 0 0 0
0 0 0 0 0 0 0 0 0 5 23 38 44 25 35 24 6 0 0 0 0 0 0 0 0 0 0 0 0 0 0 1 6 0 0 0 0 0 0 0 0 0 0
0 0 0 0 0 0 0 0 2 8 16 18 4 3 1 0 0 0 0 0 0 0 0 0 0 0 0 0 0 0 0 0 1 5 0 0 0 0 0 0 0 0 0
0 0 0 0 0 0 0 0 0 3 4 3 0 0 0 0 0 0 0 0 0 0 0 0 0 0 0 0 0 0 0 0 0 0 6 0 0 0 0 0 0 0 0
0 0 0 0 0 0 0 0 0 0 0 0 0 0 0 0 0 0 0 0 0 0 0 0 0 0 0 0 0 0 0 0 0 0 19 0 0 0 0 0 0 0 0
0 0 0 0 0 0 0 0 0 0 0 0 0 0 0 0 0 0 0 0 0 0 0 0 0 0 0 0 0 0 0 0 0 0 0 0 0 1 0 0 0 0 0
2 0 0 0 0 0 0 0 0 0 0 0 0 0 0 0 0 0 0 0 0 0 0 0 0 0 0 0 0 0 0 0 0 0 0 0 0 0 0 0 0 0 0

GFSMW_con_mucape_030.txt.gz
CAPE
340 180 93 100 272 387 508 506 458 472 276 149 202 294 388 231 71 32 33 28 3 0 0 0 0 0 0 0 0 0 0 0 0 0 0 0 0 0 0 0 0 0 0
531 309 181 178 290 412 494 478 454 464 343 360 211 263 224 114 48 45 29 31 23 0 0 0 0 0 0 0 0 0 0 0 0 0 0 0 0 0 0 0 0 0 0
436 489 344 322 307 376 488 472 464 595 610 506 251 199 174 114 101 28 26 37 48 0 0 0 0 0 0 0 0 0 0 0 0 0 0 0 0 0 0 0 0 0 0
367 432 500 493 462 438 525 480 579 736 470 253 239 231 211 133 69 23 32 43 83 12 0 0 0 0 0 0 0 0 1 0 1 0 0 0 0 0 0 0 0 0 0
437 462 411 491 621 531 544 512 612 727 311 265 294 259 175 187 98 41 81 88 130 8 0 0 0 0 0 0 0 0 6 0 0 0 0 0 0 0 0 0 0 0 0
254 219 368 457 524 550 547 310 329 503 389 269 251 212 217 124 121 72 92 110 69 0 1 10 4 0 1 0 0 0 0 0 0 0 0 0 0 0 0 0 0 0 0
137 177 203 244 401 505 602 429 106 145 460 305 307 233 179 160 309 78 122 46 12 39 53 62 13 2 16 3 1 0 0 0 0 0 0 0 0 0 0 0 0 0 0
156 147 190 240 218 273 400 504 415 188 289 348 379 277 374 451 87 216 65 33 39 39 45 43 25 58 10 1 0 5 0 0 0 0 0 0 0 0 0 0 0 0 0
0 21 175 250 281 264 287 362 463 469 471 495 473 420 504 227 259 322 74 68 80 71 52 24 46 35 9 5 8 2 0 0 0 0 0 0 0 0 0 1 0 0 0
0 7 177 370 381 342 359 448 590 684 657 593 539 616 649 319 432 181 137 128 90 71 57 74 55 34 11 7 5 1 0 0 0 0 0 0 0 0 0 0 0 0 0
14 68 228 372 451 548 636 731 875 919 764 660 679 729 490 481 123 100 89 76 57 55 58 52 22 12 1 3 0 0 0 0 0 0 0 0 0 0 0 0 0 0 1
71 196 300 376 493 671 860 930 1047 838 602 542 582 428 284 140 77 49 21 24 30 36 38 24 14 11 8 0 0 0 0 0 0 0 0 0 0 0 0 0 0 0 0
59 248 408 484 555 755 941 1020 1080 797 550 485 372 143 57 52 52 31 46 43 29 31 20 14 11 8 4 4 0 0 0 0 0 0 0 0 0 0 0 0 0 0 0
6 184 348 492 682 839 952 962 939 828 635 475 171 59 48 40 31 41 42 31 37 29 20 12 6 5 1 0 0 0 0 0 0 0 0 0 0 0 0 0 0 0 0
0 26 169 414 616 792 806 803 758 730 572 181 80 62 41 12 34 53 54 40 41 45 23 21 7 2 0 0 0 0 0 0 0 0 0 8 4 0 0 0 0 0 0
0 6 77 130 175 148 183 202 262 356 304 164 73 61 59 41 51 62 61 40 40 41 28 32 27 0 0 0 0 0 0 0 0 0 1 9 3 0 0 0 0 0 0
0 0 0 0 0 0 0 0 0 0 0 17 40 48 61 57 69 76 79 74 45 27 17 5 0 0 0 0 0 0 0 0 0 0 3 9 4 0 0 0 0 0 0
0 0 0 0 0 0 0 0 0 0 0 0 24 58 75 82 90 90 58 77 37 13 0 0 0 0 0 0 0 0 0 0 0 0 5 7 3 0 0 0 0 0 0
0 0 0 0 0 0 0 0 0 0 0 9 29 52 60 83 107 88 63 45 7 0 0 0 0 0 0 0 0 0 0 0 0 0 5 4 0 0 0 0 0 0 0
0 0 0 0 0 0 0 0 0 0 0 0 0 18 52 56 31 30 12 0 0 0 0 0 0 0 0 0 0 0 0 0 0 0 2 2 0 0 0 0 0 0 0
0 0 0 0 0 0 0 0 0 0 0 0 0 3 3 1 0 0 0 0 0 0 0 0 0 0 0 0 0 0 0 0 0 1 0 1 6 1 0 0 0 0 0
0 0 0 0 0 0 0 0 0 0 0 0 4 11 3 1 0 0 0 0 0 0 0 0 0 0 0 0 0 0 0 0 0 0 0 0 5 10 1 0 0 0 0
0 0 0 0 0 0 0 0 0 0 0 0 0 0 0 0 0 0 0 0 0 0 0 0 0 0 0 0 0 0 0 0 0 0 0 0 0 0 0 0 0 0 0
0 0 0 0 0 0 0 0 0 0 0 0 0 0 0 0 0 0 0 0 0 0 0 0 0 0 0 0 0 0 0 0 0 0 0 0 0 0 0 0 0 0 0
0 0 0 2 0 0 0 0 0 0 0 0 0 0 0 0 0 0 0 0 0 0 0 0 0 0 0 0 0 0 1 0 0 0 0 0 0 0 0 0 0 0 0
0 3 0 0 1 0 0 0 0 0 0 0 0 0 0 0 0 0 0 0 0 0 0 0 0 0 0 0 0 0 1 8 3 1 0 0 0 0 0 0 0 0 0

GFSMW_con_mucape_036.txt.gz
CAPE
211 241 175 116 39 82 163 230 309 550 759 569 136 141 422 568 575 589 374 179 17 64 3 0 0 0 0 0 0 0 0 0 0 0 0 0 0 0 0 0 0 0 0
260 384 467 240 168 189 245 326 455 661 771 609 190 358 566 550 457 212 124 4 0 0 0 0 0 0 0 0 0 0 0 0 0 0 0 0 0 0 0 0 0 0 0
858 745 680 748 452 267 321 367 561 841 990 719 358 342 524 235 209 169 141 41 2 14 18 15 8 0 0 0 0 0 0 0 0 0 0 0 0 0 0 0 0 0 0
698 831 1069 899 838 576 513 492 554 834 989 866 465 233 227 410 138 103 32 74 30 35 48 39 30 35 0 0 0 0 2 0 0 2 0 0 0 0 0 0 0 0 0
696 813 935 1191 934 756 650 796 785 908 1070 990 730 565 436 582 278 43 57 43 28 49 49 45 81 103 29 0 1 18 12 0 0 0 0 0 0 0 0 0 0 0 0
781 838 899 1051 1231 1082 903 935 962 993 1049 853 400 402 396 505 106 83 73 72 98 84 88 70 59 27 0 2 5 16 8 3 0 0 0 0 0 0 0 0 0 0 0
801 857 929 1073 1258 1391 1351 1233 1136 747 923 582 195 256 326 488 76 68 64 109 189 263 122 81 14 14 13 17 42 15 0 2 4 0 0 0 0 0 0 0 0 0 0
766 840 871 969 1154 1410 1647 1478 1367 755 230 169 251 441 314 370 148 138 173 373 334 143 119 83 41 9 36 32 13 11 0 0 0 0 0 0 0 0 0 0 0 0 0
123 425 757 863 937 1089 1519 1570 1373 999 682 135 17 99 148 143 224 329 352 457 199 140 49 36 39 44 16 16 29 9 3 0 0 0 0 0 0 0 0 0 0 0 0
104 102 193 369 734 857 1198 1367 1445 1407 1089 239 123 156 277 326 342 340 370 288 210 139 51 61 71 48 49 18 8 0 0 0 0 0 0 0 0 0 0 0 0 0 0
394 360 352 387 547 664 945 1100 1299 1407 1411 613 496 461 516 486 339 251 294 173 188 106 58 83 79 48 26 17 15 0 0 1 0 0 0 0 0 0 0 0 0 18 24
201 558 645 763 884 903 916 1028 1110 1178 1288 1301 1169 790 528 357 186 234 84 123 92 93 72 64 66 57 25 0 4 1 8 3 2 0 0 0 0 0 0 0 35 36 38
130 560 812 977 1059 1135 1159 1155 1185 1134 1109 902 693 409 242 157 212 209 115 72 84 53 50 50 35 10 2 2 0 0 2 0 0 0 0 0 0 0 40 48 47 42 31
0 425 785 859 872 879 805 741 719 599 595 526 456 328 229 151 198 169 97 76 45 39 49 46 24 7 0 6 8 2 0 0 0 0 0 0 0 0 41 43 53 47 45
0 197 618 766 658 592 558 607 721 761 681 596 451 374 295 218 156 72 38 24 22 27 22 35 13 31 0 0 3 0 0 0 0 0 0 0 0 0 9 25 47 48 42
1 87 215 334 275 415 551 656 569 461 316 144 73 6 13 40 70 51 70 75 62 63 34 8 4 0 0 20 0 0 0 0 0 0 0 0 0 0 0 0 0 1 30
0 3 30 66 86 72 40 21 3 0 0 0 0 0 0 0 0 0 2 5 27 23 25 25 15 0 0 0 0 0 0 0 0 0 0 2 2 1 0 2 0 4 7
0 0 0 0 0 0 0 0 0 0 0 0 0 0 0 0 0 0 1 4 5 7 11 0 1 0 0 0 0 0 0 0 0 0 0 0 1 4 9 2 16 0 3
0 0 0 0 0 0 0 0 0 0 0 0 0 0 0 0 0 0 0 0 1 0 0 0 0 0 0 0 0 0 0 0 0 0 0 0 1 0 0 0 9 11 13
0 0 0 0 0 0 0 0 0 0 0 0 0 0 0 0 0 0 0 0 0 0 0 0 0 0 0 0 0 0 0 0 0 0 0 0 0 0 0 0 5 2 19
0 0 0 0 0 0 0 0 0 0 0 0 0 0 0 0 0 0 0 0 0 0 0 0 0 0 0 0 0 0 0 0 0 0 2 16 0 0 0 0 7 11 5
0 0 0 0 0 0 0 0 0 0 0 0 0 0 0 0 0 0 0 0 0 0 0 0 0 0 0 0 0 0 0 0 0 0 18 57 14 4 0 0 0 6 10
0 0 0 0 0 0 0 0 0 0 0 0 0 0 0 0 0 0 0 0 0 0 0 0 0 0 0 0 0 0 0 0 0 0 0 0 0 4 4 1 0 0 13
0 0 0 0 0 0 0 0 0 0 0 0 0 0 0 0 0 0 0 0 0 0 0 0 0 0 0 0 0 0 0 0 0 0 0 0 0 0 1 18 19 4 0
0 0 0 0 0 0 0 0 0 0 0 0 0 0 0 0 0 0 0 0 0 0 0 0 0 0 0 0 0 0 0 0 0 0 0 0 26 38 70 85 37 2 1
0 0 0 0 0 0 0 0 0 0 0 0 0 0 0 0 0 0 0 0 0 0 0 0 0 0 0 0 0 0 0 0 0 0 0 95 93 84 64 114 102 0 8

GFSMW_con_mucape_039.txt.gz
CAPE
138 190 38 22 3 15 4 42 91 238 359 265 146 77 24 158 529 865 616 546 424 200 249 154 14 42 0 0 0 0 0 0 0 0 0 0 0 0 0 0 0 0 0
153 183 178 33 32 46 34 19 39 153 398 433 122 31 112 208 380 631 670 638 528 204 199 76 0 0 0 0 0 0 0 0 0 0 0 0 0 0 0 0 0 0 0
169 208 206 237 122 167 224 239 302 387 666 571 301 102 294 443 480 483 510 499 405 127 29 10 13 7 6 0 0 0 0 0 0 0 0 0 0 0 0 0 0 0 0
360 263 361 376 300 340 527 412 510 561 827 929 637 220 293 578 614 632 375 255 78 34 21 15 27 41 18 13 11 0 0 0 6 6 0 0 0 0 0 0 0 0 0
430 415 429 518 606 522 718 775 560 580 893 1152 1254 715 449 553 810 557 354 266 15 23 42 33 28 41 26 20 12 2 0 21 10 0 3 0 0 0 0 0 0 0 0
393 393 502 631 594 732 1015 1196 683 561 671 1250 1042 1009 701 741 840 663 298 70 19 39 63 72 37 50 29 72 31 0 0 4 7 5 1 5 1 0 0 0 0 0 0
438 416 419 553 870 1000 1166 1246 832 885 930 1201 1374 879 585 777 856 689 226 85 61 53 93 124 164 120 73 21 3 2 6 3 1 5 0 0 0 0 0 0 0 0 0
528 459 352 681 923 1200 1435 1273 1132 1201 1152 1192 1144 587 274 200 529 886 271 102 74 148 161 219 199 65 25 9 27 38 43 1 3 0 5 0 0 0 0 0 0 0 0
511 582 469 454 905 1174 1671 2145 1537 1438 1288 1316 683 514 542 477 755 501 289 128 190 207 269 159 80 59 28 42 42 39 9 6 0 1 0 0 0 0 0 0 0 0 0
232 307 539 662 754 1067 1353 2308 2060 1720 1509 847 895 505 499 721 690 553 266 190 252 266 292 148 72 85 49 25 30 13 7 9 5 1 0 1 0 0 0 0 0 0 0
383 402 343 411 655 963 1243 1532 1992 1929 1624 1374 1049 327 335 392 444 416 271 192 172 164 108 66 63 75 11 9 37 16 12 4 0 0 0 0 0 0 0 0 0 0 0
157 533 652 670 678 774 992 1314 1713 1875 1834 1738 959 536 773 611 542 674 542 151 69 51 7 31 37 59 36 8 19 17 12 7 0 6 0 0 0 0 0 0 0 0 0
100 497 883 1063 1142 1131 1182 1292 1480 1599 1680 1834 1070 1013 1142 1093 1009 643 377 157 80 44 37 33 44 35 29 30 25 15 6 0 2 0 0 0 0 0 0 0 0 16 35
2 241 802 1157 1306 1411 1449 1468 1546 1562 1550 1535 1469 1205 789 849 438 217 95 111 97 61 83 49 36 53 26 34 25 10 19 0 0 0 0 0 0 0 0 0 85 72 89
0 55 707 1077 1207 1241 1195 1239 1115 1028 736 576 525 328 275 239 243 200 177 125 71 48 55 54 52 27 29 41 4 5 0 0 0 0 0 0 0 0 0 16 56 69 74
99 285 594 946 953 963 977 693 473 520 440 315 310 300 127 33 28 55 81 52 31 21 50 53 41 19 0 4 0 0 0 0 0 0 0 0 0 1 0 0 0 0 34
130 307 505 604 584 431 335 474 497 294 202 99 27 17 6 0 0 0 0 0 3 4 5 7 2 16 4 8 0 0 0 0 0 0 0 20 8 1 9 7 3 0 0
10 5 8 2 36 108 143 111 46 5 0 0 0 0 0 0 0 0 0 0 0 0 1 3 5 7 3 0 0 0 0 0 0 15 7 9 9 7 6 22 32 61 28
0 0 0 0 0 0 0 0 0 0 0 0 0 0 0 0 0 0 0 0 0 0 0 0 0 0 0 0 0 0 0 0 0 0 0 2 6 1 0 1 27 60 62
0 0 0 0 0 0 0 0 0 0 0 0 0 0 0 0 0 0 0 0 0 0 0 0 0 0 0 0 0 0 0 0 0 0 0 3 4 2 1 27 27 38 51
0 0 0 0 0 0 0 0 0 0 0 0 0 0 0 0 0 0 0 0 0 0 0 0 0 0 0 0 0 0 0 0 0 0 0 0 0 0 2 9 12 40 36
0 0 0 0 0 0 0 0 0 0 0 0 0 0 0 0 0 0 0 0 0 0 0 0 0 0 0 0 0 0 0 0 0 0 0 0 0 0 0 0 1 12 20
0 0 0 0 0 0 0 0 0 0 0 0 0 0 0 0 0 0 0 0 0 0 0 0 0 0 0 0 0 0 0 0 0 0 0 0 0 0 0 0 11 0 13
0 0 0 0 0 0 0 0 0 0 0 0 0 0 0 0 0 0 0 0 0 0 0 0 0 0 0 0 0 0 0 0 0 0 0 0 0 0 0 6 7 29 9
0 0 0 0 0 0 0 0 0 0 0 0 0 0 0 0 0 0 0 0 0 0 0 0 0 0 0 0 0 0 0 0 0 0 0 0 0 0 28 40 47 56 61
0 0 0 0 0 0 0 0 0 0 0 0 0 0 0 0 0 0 0 0 0 0 0 0 0 0 0 0 0 0 0 0 0 0 0 0 0 0 0 0 0 29 0

GFSMW_con_mucape_042.txt.gz
CAPE
53 156 12 0 0 0 0 0 0 0 0 16 58 102 30 79 112 352 338 505 458 388 296 254 110 68 50 11 0 0 0 0 0 0 0 0 0 0 0 0 0 0 0
76 20 10 0 0 0 0 0 0 0 45 82 3 58 14 25 136 460 597 556 444 272 253 247 98 57 24 0 0 0 0 0 0 0 0 0 0 0 0 0 0 0 0
156 43 25 9 2 0 0 0 0 21 95 140 90 31 34 15 98 260 521 503 442 283 166 210 80 19 11 2 4 1 0 0 0 0 0 0 0 0 0 0 0 0 0
72 142 71 16 13 16 0 0 0 0 121 274 392 38 0 14 255 410 320 382 498 361 116 51 6 2 13 11 12 27 2 1 2 0 4 4 0 0 0 0 0 0 0
117 132 178 163 59 110 144 99 75 157 232 308 536 368 101 302 611 459 476 283 281 255 86 17 20 33 46 36 29 27 16 10 30 0 0 0 3 0 0 0 0 0 0
316 238 262 285 281 182 236 334 321 363 416 558 610 577 331 504 509 387 336 302 155 98 50 19 29 52 76 93 78 31 54 37 1 5 8 11 2 0 0 1 0 0 0
327 324 258 333 419 399 357 439 495 515 548 729 786 858 737 631 497 310 269 281 136 77 54 58 37 76 131 117 64 42 59 11 11 26 8 6 3 2 9 1 0 0 0
417 385 296 388 430 600 617 547 528 498 539 804 897 872 839 613 501 419 295 230 189 80 90 60 127 151 97 51 17 56 15 20 23 25 19 0 8 0 0 0 0 0 0
452 454 286 260 601 723 877 915 843 644 701 689 1094 917 770 717 594 396 331 248 242 126 103 98 159 222 55 89 56 15 25 0 14 48 12 8 0 5 0 0 0 0 0
146 339 211 408 343 893 1104 1216 1014 769 915 1040 1267 1020 812 623 464 359 517 424 257 275 161 128 72 140 74 157 62 42 46 36 4 11 6 1 0 0 0 0 0 0 0
249 301 284 284 472 584 874 1390 1387 1308 1179 1225 1229 1059 726 468 539 676 630 478 311 184 133 138 122 85 90 31 81 50 29 23 23 7 0 8 0 0 0 0 0 0 0
52 400 537 468 443 549 942 1772 1848 1665 1317 1418 1252 995 645 296 362 413 409 376 302 229 241 99 21 11 12 29 63 48 47 18 6 11 0 0 0 0 0 0 0 0 0
16 265 614 787 837 802 876 1383 1716 1709 1378 1315 1152 1043 813 534 450 503 500 392 456 410 398 29 14 19 15 33 58 26 58 48 41 11 0 0 0 0 0 0 0 0 0
10 67 593 928 1141 1165 1192 1241 1547 1565 1382 1367 1155 1243 608 728 602 912 711 518 388 312 291 21 22 27 40 55 61 15 48 12 1 0 0 0 0 0 0 0 0 0 0
0 17 380 988 1275 1487 1427 1437 1474 1312 1264 1117 874 885 813 689 802 879 585 441 281 104 89 117 67 43 60 63 32 13 0 6 6 0 0 0 0 0 0 0 0 0 0
0 0 136 983 1189 1286 1257 1326 1196 1192 1202 790 711 692 677 521 275 207 127 70 88 97 39 13 0 12 21 12 11 10 7 1 2 0 0 0 0 0 0 0 2 6 7
88 215 351 951 1007 1030 1006 938 593 468 627 611 484 349 242 136 47 23 0 0 0 0 0 0 2 2 5 13 14 14 6 1 0 0 0 0 0 2 1 0 0 0 0
106 290 584 677 642 699 697 475 274 394 377 263 125 39 14 2 0 0 0 0 0 0 0 2 2 3 2 2 0 0 0 0 0 0 0 0 0 0 2 0 0 0 0
59 61 125 186 161 86 45 117 150 108 43 11 0 0 0 0 0 0 0 0 0 0 0 0 0 0 0 0 0 0 0 0 0 0 0 0 0 0 0 0 0 0 0
0 0 0 0 0 0 0 0 0 0 0 0 0 0 0 0 0 0 0 0 0 0 0 0 0 0 0 0 0 0 0 0 0 0 0 0 0 0 0 0 0 0 0
0 0 0 0 0 0 0 0 0 0 0 0 0 0 0 0 0 0 0 0 0 0 0 0 0 0 0 0 0 0 0 0 0 0 0 0 0 0 0 0 0 0 0
0 0 0 0 0 0 0 0 0 0 0 0 0 0 0 0 0 0 0 0 0 0 0 0 0 0 0 0 0 0 0 0 0 0 0 0 0 0 0 0 0 0 0
0 0 0 0 0 0 0 0 0 0 0 0 0 0 0 0 0 0 0 0 0 0 0 0 0 0 0 0 0 0 0 0 0 0 0 0 0 0 0 0 0 0 0
0 0 0 0 0 0 0 0 0 0 0 0 0 0 0 0 0 0 0 0 0 0 0 0 0 0 0 0 0 0 0 0 0 0 0 0 0 0 0 0 0 0 0
0 0 0 0 0 0 0 0 0 0 0 0 0 0 0 0 0 0 0 0 0 0 0 0 0 0 0 0 0 0 0 0 0 0 0 0 0 0 0 0 0 0 0
0 0 0 0 0 0 0 0 0 0 0 0 0 0 0 0 0 0 0 0 0 0 0 0 0 0 0 0 0 0 0 0 0 0 0 0 0 0 0 0 0 0 0

GFSMW_con_mucape_045.txt.gz
CAPE
16 0 0 0 0 0 0 0 0 0 0 0 0 0 0 0 12 0 98 43 59 144 318 221 112 78 0 23 0 0 0 0 0 0 0 0 0 0 0 0 0 0 0
26 0 0 0 0 0 0 0 0 0 0 0 2 2 0 0 0 4 10 8 13 120 267 158 92 70 66 6 1 1 0 0 0 0 0 0 0 0 0 0 0 0 0
29 0 0 0 0 0 0 0 0 0 0 0 3 5 19 6 0 0 51 17 191 242 187 145 105 74 50 10 9 24 18 9 0 0 0 0 0 0 0 0 0 0 0
3 0 0 0 0 0 0 0 0 0 0 0 0 0 0 0 0 5 99 199 276 267 240 150 129 135 43 26 34 31 22 1 12 0 0 0 0 0 0 0 0 0 0
0 0 0 0 0 0 0 0 0 0 0 0 0 0 0 0 0 5 89 217 275 347 272 147 95 100 29 31 40 58 53 38 26 18 5 1 0 7 3 0 0 0 0
40 24 22 0 2 0 0 0 0 0 0 0 4 42 111 0 4 67 123 187 201 333 317 165 64 44 19 14 23 55 19 50 46 12 9 0 0 0 1 4 6 0 0
103 92 100 79 26 23 0 0 0 0 0 0 34 34 84 149 49 130 193 164 151 191 172 122 56 35 28 19 37 40 61 16 5 25 0 0 2 7 18 4 0 0 0
162 117 105 110 110 86 99 57 0 0 0 23 48 69 80 90 95 156 216 179 150 124 55 149 91 53 41 72 71 130 69 27 44 11 13 4 0 3 8 3 0 0 0
298 131 85 88 117 158 189 215 200 128 79 233 287 240 248 307 302 238 292 248 203 164 128 158 133 103 49 116 169 4 51 34 37 36 19 16 12 1 2 7 6 0 0
279 209 162 144 158 160 206 193 278 269 249 193 368 436 451 362 447 357 356 351 271 175 180 187 176 125 102 117 126 115 42 55 31 38 38 28 11 25 32 10 0 0 0
139 189 228 192 197 337 414 313 225 234 163 185 326 523 606 545 425 476 546 463 268 168 221 219 244 161 143 138 197 117 45 53 34 16 1 29 3 15 3 0 0 0 0
86 203 302 330 167 281 382 276 338 357 280 274 391 668 583 614 347 478 555 431 454 436 581 368 321 285 193 94 69 69 39 47 16 1 9 0 21 1 0 0 0 0 0
2 251 359 338 359 239 339 349 515 467 468 487 831 759 694 639 537 429 565 610 476 432 579 403 370 190 58 12 23 33 31 6 14 17 1 2 0 0 0 0 0 0 0
0 193 385 560 696 687 868 1048 888 819 742 786 905 944 815 628 685 562 418 277 285 490 351 427 240 170 87 74 33 17 10 37 16 8 8 0 0 0 0 0 0 0 0
0 24 288 564 825 863 974 1234 1457 1426 1249 1224 1161 1185 1015 842 491 401 419 444 330 291 436 203 128 90 49 35 10 12 2 23 0 15 1 0 0 0 0 0 0 0 3
0 0 231 662 1003 1063 1078 1056 1058 1122 1127 1218 1136 1018 1065 699 512 553 548 505 336 326 249 264 6 11 8 1 16 11 9 15 6 1 3 0 0 0 0 0 0 5 2
0 0 401 952 1083 1113 1190 1165 1086 1097 1003 1117 1103 935 786 719 572 476 433 309 189 41 4 3 2 1 0 1 6 4 6 11 16 5 0 0 0 0 0 0 0 0 0
3 49 450 813 932 984 1011 1058 911 770 737 681 658 612 583 519 409 117 4 0 0 0 0 0 0 1 2 5 4 6 4 0 0 0 0 0 0 0 0 0 0 0 0
67 244 580 704 727 741 813 820 721 594 300 293 362 274 189 21 3 0 0 0 0 0 0 0 0 0 1 0 0 0 0 0 0 0 0 0 0 0 0 0 0 0 0
117 214 293 368 441 492 551 478 341 195 83 143 23 7 0 0 0 0 0 0 0 0 0 0 0 0 0 0 0 0 0 0 0 0 0 0 0 0 0 0 0 0 0
38 58 80 99 139 171 120 3 0 0 0 0 0 0 0 0 0 0 0 0 0 0 0 0 0 0 0 0 0 0 0 0 0 0 0 0 0 0 0 0 0 0 0
0 0 0 0 0 0 0 0 0 0 0 0 0 0 0 0 0 0 0 0 0 0 0 0 0 0 0 0 0 0 0 0 0 0 0 0 0 0 0 0 0 0 0
0 0 0 0 0 0 0 0 0 0 0 0 0 0 0 0 0 0 0 0 0 0 0 0 0 0 0 0 0 0 0 0 0 0 0 0 0 0 0 0 0 0 0
0 0 0 0 0 0 0 0 0 0 0 0 0 0 0 0 0 0 0 0 0 0 0 0 0 0 0 0 0 0 0 0 0 0 0 0 0 0 0 0 0 0 0
0 0 0 0 0 0 0 0 0 0 0 0 0 0 0 0 0 0 0 0 0 0 0 0 0 0 0 0 0 0 0 0 0 0 0 0 0 0 0 0 0 0 0
0 0 0 0 0 0 0 0 0 0 0 0 0 0 0 0 0 0 0 0 0 0 0 0 0 0 0 0 0 0 0 0 0 0 0 0 0 0 0 0 0 0 0

GFSMW_con_mucape_048.txt.gz
CAPE
0 0 0 0 0 0 0 0 4 1 0 4 2 1 1 0 2 4 2 3 14 70 144 126 103 47 5 0 9 0 0 0 0 0 0 0 0 0 0 0 0 0 0
0 0 0 0 0 0 0 0 0 0 0 0 5 0 0 0 3 0 0 0 0 41 94 141 94 71 3 44 19 25 11 0 0 0 0 0 0 0 0 0 0 0 0
8 0 0 0 0 0 0 0 0 0 0 0 0 0 1 3 0 0 0 0 0 0 16 51 132 68 39 27 49 48 14 13 29 20 23 0 1 0 1 0 0 0 0
7 0 0 0 0 0 0 0 0 0 0 0 0 0 0 0 0 0 0 0 5 14 18 64 109 62 60 48 62 52 30 41 38 34 8 9 28 6 0 0 0 0 0
12 0 0 0 0 0 0 0 0 0 0 0 0 0 0 0 0 0 0 2 30 31 103 139 177 127 97 40 36 10 21 41 34 20 27 42 1 3 5 0 0 1 4
81 6 1 0 0 0 0 0 0 0 0 0 0 0 0 0 0 0 0 0 46 82 115 164 206 112 91 94 36 24 23 35 37 21 24 0 0 10 0 0 0 0 0
190 87 38 14 5 0 0 0 0 0 0 0 0 0 0 0 0 0 0 0 26 86 123 170 124 87 84 85 46 42 43 41 25 31 10 6 2 2 12 9 6 0 8
300 220 83 81 58 21 1 0 0 0 0 0 0 0 0 15 13 7 4 0 13 43 164 207 149 110 63 68 52 28 26 44 50 19 31 14 3 0 6 11 1 0 1
272 333 281 179 147 129 77 75 9 0 0 0 0 5 20 28 55 117 225 31 53 134 145 229 188 131 115 78 52 42 64 96 66 50 19 79 28 1 3 1 2 0 0
211 306 352 337 247 197 186 155 151 138 60 12 0 0 18 35 54 69 140 184 76 177 163 135 85 78 117 89 115 54 54 86 56 39 39 24 12 0 0 1 0 5 7
176 226 269 329 348 277 239 243 215 169 207 149 56 8 12 39 100 105 107 170 215 266 320 261 227 148 119 133 249 64 167 36 17 42 42 20 3 2 6 1 5 3 0
114 170 160 193 253 295 294 219 211 239 259 272 252 120 130 174 169 168 188 269 185 317 257 263 232 168 219 215 160 124 59 34 9 21 20 5 0 0 0 1 0 0 0
52 127 134 125 151 214 296 295 279 275 298 281 234 180 147 304 327 311 302 221 81 367 257 144 245 330 316 171 65 66 38 21 25 20 1 16 12 7 8 4 0 0 0
8 130 183 176 178 215 263 290 316 329 381 303 247 228 299 393 447 403 353 136 75 293 274 274 244 271 253 147 127 150 30 35 12 7 5 3 4 0 2 0 0 0 0
0 46 174 208 207 220 303 394 403 434 428 475 425 343 388 485 537 528 536 537 520 394 345 308 217 152 148 98 134 50 35 9 2 4 0 18 9 0 0 0 0 0 0
7 0 155 215 376 497 804 833 843 773 667 626 531 492 437 543 677 579 462 438 438 225 206 274 213 289 20 26 32 5 9 2 0 5 10 4 8 1 1 0 0 0 0
3 2 16 194 475 657 882 1017 1049 1108 1101 1022 818 723 716 691 597 401 364 440 482 462 362 314 169 121 9 8 9 2 5 3 11 5 6 9 4 0 0 0 0 0 0
0 0 22 208 542 663 749 870 955 1101 1023 978 874 700 713 588 543 539 447 355 191 124 169 83 5 5 6 5 5 5 6 5 9 10 3 0 0 0 0 0 0 0 0
17 7 108 387 722 792 771 788 818 842 790 820 754 527 459 462 328 276 138 160 112 2 0 0 0 1 3 0 0 0 1 2 0 0 0 0 0 0 0 0 0 0 0
22 114 222 585 819 878 884 855 829 615 503 469 385 323 245 190 161 178 31 0 0 0 0 0 0 0 0 0 0 0 0 0 0 0 0 0 0 0 0 0 0 0 0
62 174 369 574 717 752 745 718 635 537 375 233 84 53 96 53 4 0 0 0 0 0 0 0 0 0 0 0 0 0 0 0 0 0 0 0 0 0 0 0 0 0 0
82 203 298 401 483 552 553 513 459 365 200 9 2 10 0 0 0 0 0 0 0 0 0 0 0 0 0 0 0 0 0 0 0 0 0 0 0 0 0 0 0 0 0
42 75 156 182 191 176 147 100 20 0 0 0 0 0 0 0 0 0 0 0 0 0 0 0 0 0 0 0 0 0 0 0 0 0 0 0 0 0 0 0 0 0 0
0 7 16 11 0 0 0 0 0 0 0 0 0 0 0 0 0 0 0 0 0 0 0 0 0 0 0 0 0 0 0 0 0 0 0 0 0 0 0 0 0 0 0
14 0 0 0 0 0 0 0 0 0 0 0 0 0 0 0 0 0 0 0 0 0 0 0 0 0 0 0 0 0 0 0 0 0 0 0 0 0 0 0 0 0 0
0 0 0 0 0 0 0 0 0 0 0 0 0 0 0 0 0 0 0 0 3 0 0 0 0 0 0 0 0 0 0 0 0 0 0 0 0 0 0 0 0 0 0